TimePST,TemperatureF,Dew PointF,Humidity,Sea Level PressureIn,VisibilityMPH,Wind Direction,Wind SpeedMPH,Gust SpeedMPH,PrecipitationIn,Events,Conditions,WindDirDegrees,DateUTC
12:21 AM,28.4,26.6,93,30.30,0.2,Calm,Calm,-,N/A,Fog,Light Freezing Fog,0,2013-01-21 08:21:00
12:32 AM,28.4,26.6,93,30.30,0.5,Calm,Calm,-,N/A,Fog,Light Freezing Fog,0,2013-01-21 08:32:00
12:40 AM,28.4,26.6,93,30.30,0.2,Calm,Calm,-,N/A,Fog,Light Freezing Fog,0,2013-01-21 08:40:00
1:42 AM,28.4,26.6,93,30.30,0.5,ENE,3.5,-,N/A,Fog,Light Freezing Fog,60,2013-01-21 09:42:00
1:49 AM,28.4,26.6,93,30.30,0.2,Calm,Calm,-,N/A,Fog,Light Freezing Fog,0,2013-01-21 09:49:00
1:53 AM,28.9,27.0,92,30.30,0.2,Calm,Calm,-,N/A,Fog,Light Freezing Fog,0,2013-01-21 09:53:00
2:18 AM,28.4,26.6,93,30.30,0.5,Calm,Calm,-,N/A,Fog,Light Freezing Fog,0,2013-01-21 10:18:00
2:53 AM,28.0,26.1,92,30.30,0.8,Calm,Calm,-,N/A,,Mist,0,2013-01-21 10:53:00
3:48 AM,28.4,26.6,93,30.28,0.2,Calm,Calm,-,N/A,Fog,Light Freezing Fog,0,2013-01-21 11:48:00
4:43 AM,28.4,24.8,86,30.28,0.5,Calm,Calm,-,N/A,Fog,Light Freezing Fog,0,2013-01-21 12:43:00
4:53 AM,28.9,26.1,89,30.28,0.2,Calm,Calm,-,N/A,Fog,Light Freezing Fog,0,2013-01-21 12:53:00
5:53 AM,28.0,26.1,92,30.26,0.2,Calm,Calm,-,N/A,Fog,Light Freezing Fog,0,2013-01-21 13:53:00
6:51 AM,28.4,26.6,93,30.23,0.5,Calm,Calm,-,N/A,Fog,Light Freezing Fog,0,2013-01-21 14:51:00
6:53 AM,28.0,25.0,88,30.24,0.5,Calm,Calm,-,N/A,Fog,Light Freezing Fog,0,2013-01-21 14:53:00
7:00 AM,28.4,24.8,86,30.23,0.2,Calm,Calm,-,N/A,Fog,Light Freezing Fog,0,2013-01-21 15:00:00
7:53 AM,28.0,24.1,85,30.23,0.2,Calm,Calm,-,N/A,Fog,Light Freezing Fog,0,2013-01-21 15:53:00
8:21 AM,26.6,24.8,93,30.23,1.0,Calm,Calm,-,N/A,,Mist,0,2013-01-21 16:21:00
8:43 AM,26.6,24.8,93,30.24,2.0,Calm,Calm,-,0.00,Snow,Light Snow,0,2013-01-21 16:43:00
8:53 AM,27.0,24.1,89,30.25,2.5,Calm,Calm,-,0.00,,Overcast,0,2013-01-21 16:53:00
9:18 AM,26.6,24.8,93,30.25,1.0,Calm,Calm,-,N/A,,Overcast,0,2013-01-21 17:18:00
9:27 AM,26.6,24.8,93,30.26,0.2,Calm,Calm,-,N/A,Fog,Light Freezing Fog,0,2013-01-21 17:27:00
9:53 AM,28.0,25.0,88,30.27,0.2,Calm,Calm,-,N/A,Fog,Light Freezing Fog,0,2013-01-21 17:53:00
10:21 AM,28.4,26.6,93,30.26,0.8,Calm,Calm,-,N/A,,Mist,0,2013-01-21 18:21:00
10:32 AM,28.4,26.6,93,30.27,1.5,SE,3.5,-,N/A,,Overcast,140,2013-01-21 18:32:00
10:43 AM,28.4,26.6,93,30.27,2.0,Calm,Calm,-,N/A,,Overcast,0,2013-01-21 18:43:00
10:53 AM,30.0,27.0,88,30.27,2.0,Calm,Calm,-,N/A,,Overcast,0,2013-01-21 18:53:00
11:08 AM,30.2,26.6,86,30.26,2.5,Calm,Calm,-,N/A,,Overcast,0,2013-01-21 19:08:00
11:17 AM,30.2,26.6,86,30.26,3.0,Calm,Calm,-,N/A,,Overcast,0,2013-01-21 19:17:00
11:25 AM,30.2,26.6,86,30.26,2.5,Calm,Calm,-,N/A,,Overcast,0,2013-01-21 19:25:00
11:53 AM,32.0,28.0,85,30.25,3.0,Calm,Calm,-,N/A,,Overcast,0,2013-01-21 19:53:00
12:08 PM,30.2,26.6,86,30.24,4.0,Calm,Calm,-,N/A,,Overcast,0,2013-01-21 20:08:00
12:26 PM,32.0,28.4,87,30.24,4.0,East,3.5,-,N/A,,Scattered Clouds,100,2013-01-21 20:26:00
12:53 PM,33.1,28.0,82,30.23,5.0,Calm,Calm,-,N/A,,Haze,0,2013-01-21 20:53:00
1:21 PM,33.8,28.4,81,30.22,5.0,East,3.5,-,N/A,,Mostly Cloudy,80,2013-01-21 21:21:00
1:36 PM,33.8,28.4,81,30.22,5.0,ESE,3.5,-,N/A,,Haze,110,2013-01-21 21:36:00
1:53 PM,33.1,28.9,85,30.22,6.0,Calm,Calm,-,N/A,,Clear,0,2013-01-21 21:53:00
2:53 PM,36.0,28.9,76,30.21,7.0,SE,4.6,-,N/A,,Clear,140,2013-01-21 22:53:00
3:53 PM,36.0,28.9,76,30.20,6.0,Calm,Calm,-,N/A,,Haze,0,2013-01-21 23:53:00
4:53 PM,32.0,28.0,85,30.19,5.0,ESE,4.6,-,N/A,,Clear,110,2013-01-22 00:53:00
5:53 PM,30.0,26.1,85,30.19,4.0,SE,4.6,-,N/A,,Clear,130,2013-01-22 01:53:00
6:00 PM,30.2,26.6,86,30.18,4.0,ESE,3.5,-,N/A,,Scattered Clouds,120,2013-01-22 02:00:00
6:08 PM,30.2,26.6,86,30.19,4.0,Calm,Calm,-,N/A,,Mostly Cloudy,0,2013-01-22 02:08:00
6:42 PM,30.2,28.4,93,30.19,3.0,East,3.5,-,N/A,,Overcast,100,2013-01-22 02:42:00
6:53 PM,30.0,27.0,88,30.20,1.8,East,3.5,-,N/A,,Overcast,90,2013-01-22 02:53:00
7:08 PM,30.2,26.6,86,30.19,0.5,Calm,Calm,-,N/A,Fog,Light Freezing Fog,0,2013-01-22 03:08:00
7:30 PM,30.2,28.4,93,30.19,0.2,Calm,Calm,-,N/A,Fog,Light Freezing Fog,0,2013-01-22 03:30:00
7:53 PM,30.0,28.0,92,30.19,0.2,Calm,Calm,-,N/A,Fog,Light Freezing Fog,0,2013-01-22 03:53:00
8:53 PM,28.9,27.0,92,30.20,0.2,East,3.5,-,N/A,Fog,Light Freezing Fog,90,2013-01-22 04:53:00
9:53 PM,28.9,27.0,92,30.20,0.2,Calm,Calm,-,N/A,Fog,Light Freezing Fog,0,2013-01-22 05:53:00
10:53 PM,28.9,27.0,92,30.20,0.2,Calm,Calm,-,N/A,Fog,Light Freezing Fog,0,2013-01-22 06:53:00
11:16 PM,28.4,26.6,93,30.20,0.5,Calm,Calm,-,N/A,Fog,Light Freezing Fog,0,2013-01-22 07:16:00
11:53 PM,28.0,26.1,92,30.19,0.8,Calm,Calm,-,N/A,,Mist,0,2013-01-22 07:53:00